[Iaude] MPEC W113: 2016 WO8 [a=2.44,e=0.56,i=6.2,H=24.3]

mpec at si.edu mpec at si.edu
Mon Nov 28 12:30:03 EST 2016


M.P.E.C. 2016-W113                               Issued 2016 Nov. 28, 17:26 UT
 
     The Minor Planet Electronic Circulars contain information on unusual
         minor planets and routine data on comets.  They are published
    on behalf of Division F of the International Astronomical Union by the
          Minor Planet Center, Smithsonian Astrophysical Observatory,
                          Cambridge, MA 02138, U.S.A.

             Prepared using the Tamkin Foundation Computer Network

                              MPC at CFA.HARVARD.EDU
            URL http://www.minorplanetcenter.net/    ISSN 1523-6714


                                   2016 WO8
 
Observations:
     K16W08O* C2016 11 25.18541 00 57 03.54 +29 08 26.1          19.8 VqEW113G96
     K16W08O  C2016 11 25.18976 00 57 05.99 +29 08 25.1          20.9 VqEW113G96
     K16W08O  C2016 11 25.19409 00 57 08.41 +29 08 24.4          21.1 VqEW113G96
     K16W08O  C2016 11 25.19837 00 57 10.74 +29 08 23.0          20.5 VqEW113G96
     K16W08O  C2016 11 25.32474 00 58 21.75 +29 07 44.7          21.0 VqEW113I52
     K16W08O  C2016 11 25.32585 00 58 22.39 +29 07 43.8          21.0 VqEW113I52
     K16W08O  C2016 11 25.32696 00 58 22.98 +29 07 44.1          21.3 VqEW113I52
     K16W08O  C2016 11 25.32807 00 58 23.64 +29 07 43.6          21.3 VqEW113I52
     K16W08O  C2016 11 26.09714 01 06 11.21 +29 04 28.6          20.8 VqEW113G96
     K16W08O  C2016 11 26.09855 01 06 12.01 +29 04 29.0          21.5 VqEW113G96
     K16W08O  C2016 11 26.10143 01 06 13.72 +29 04 27.5          21.2 VqEW113G96
     K16W08O  C2016 11 26.11347 01 06 20.62 +29 04 24.1          21.1 VqEW113I52
     K16W08O  C2016 11 26.11520 01 06 21.62 +29 04 23.2          20.9 VqEW113I52
     K16W08O  C2016 11 26.11865 01 06 23.61 +29 04 22.8          21.3 VqEW113I52
     K16W08O  C2016 11 27.72785 01 23 06.53 +28 50 39.0          21.2 VSEW113033
     K16W08O  C2016 11 27.73021 01 23 07.96 +28 50 37.7          20.9 VSEW113033
     K16W08O  C2016 11 27.73258 01 23 09.43 +28 50 36.4          20.6 VSEW113033
     K16W08O  C2016 11 27.73494 01 23 10.88 +28 50 35.1          21.1 VSEW113033
     K16W08O  C2016 11 27.79973 01 23 50.71 +28 49 57.1          20.4 VSEW113033
     K16W08O  C2016 11 27.80210 01 23 52.16 +28 49 55.7          20.3 VSEW113033
     K16W08O  C2016 11 27.80447 01 23 53.58 +28 49 54.1          20.4 VSEW113033
     K16W08O  C2016 11 27.80684 01 23 55.05 +28 49 52.6          20.5 VSEW113033
     K16W08O  C2016 11 27.89803 01 24 51.01 +28 48 49.9          21.7 VSEW113033
     K16W08O  C2016 11 27.90039 01 24 52.46 +28 48 48.0          21.3 VSEW113033
     K16W08O  C2016 11 27.90277 01 24 53.93 +28 48 46.4          21.9 VSEW113033
     K16W08O  C2016 11 27.90513 01 24 55.37 +28 48 44.4          21.3 VSEW113033
     K16W08O  C2016 11 27.90750 01 24 56.81 +28 48 42.8          21.4 VSEW113033
 
Observer details:
033 Karl Schwarzschild Observatory, Tautenburg.  Observers B. Stecklum,
    F. Ludwig.  Measurer B. Stecklum.  1.34-m f/3 Schmidt + CCD.
G96 Mt. Lemmon Survey.  Observer G. J. Leonard.  Measurers E. J. Christensen,
    D. C. Fuls, A. R. Gibbs, A. D. Grauer, J. A. Johnson, R. A. Kowalski,
    S. M. Larson, G. J. Leonard, R. G. Matheny, R. L. Seaman, F. C. Shelly.
    1.5-m reflector + 10K CCD.
I52 Steward Observatory, Mt. Lemmon Station.  Observer J. A. Johnson.
    Measurers E. J. Christensen, D. C. Fuls, A. R. Gibbs, A. D. Grauer,
    J. A. Johnson, R. A. Kowalski, S. M. Larson, G. J. Leonard, R. G. Matheny,
    R. L. Seaman, F. C. Shelly.  1.0-m reflector + CCD.
 
Orbital elements:
2016 WO8                                                 Earth MOID = 0.0869 AU
Epoch 2017 Feb. 16.0 TT = JDT 2457800.5                 MPC
M  21.75697              (2000.0)            P               Q
n   0.25890678     Peri.  159.37952     +0.52250951     -0.84601969
a   2.4380378      Node   258.98382     +0.76637038     +0.52048935
e   0.5625562      Incl.    6.19904     +0.37371145     +0.11550546
P   3.81           H   24.3           G   0.15           U   5
Residuals in seconds of arc
161125 G96  0.4-  0.0     161126 G96  0.3-  0.8+    161127 033  0.2+  0.0
161125 G96  0.1+  0.1-    161126 G96  0.3+  0.0     161127 033  0.1+  0.1+
161125 G96  0.4+  0.1+    161126 I52  0.1-  0.3-    161127 033  0.3-  0.0
161125 G96  0.2-  0.4-    161126 I52  0.1-  0.8-    161127 033  0.1-  0.0
161125 I52  0.2+  0.1+    161126 I52  0.0   0.2-    161127 033  0.0   0.0
161125 I52  0.3+  0.3-    161127 033  0.4+  0.0     161127 033  0.0   0.1-
161125 I52  0.3-  0.4+    161127 033  0.0   0.0     161127 033  0.0   0.1+
161125 I52  0.0   0.3+    161127 033  0.1+  0.0     161127 033  0.2-  0.2-
161126 G96  0.2-  0.1+    161127 033  0.0   0.0     161127 033  0.4-  0.0

Ephemeris:
2016 WO8                 a,e,i = 2.44, 0.56, 6                   q = 1.0665
Date    TT    R. A. (2000) Decl.     Delta      r     Elong.  Phase     V
2016 10 29    22 41 23.7 +24 53 33   0.1785  1.1140   128.9    44.0    22.5
...
2016 11 13    23 27 24.2 +27 39 00   0.1324  1.0751   127.4    47.0    21.8
...
2016 11 21    00 19 31.6 +29 00 04   0.1127  1.0671   132.4    43.1    21.4
...
2016 11 27    01 15 24.2 +28 58 18   0.1030  1.0671   139.5    36.9    21.0
2016 11 28    01 25 57.3 +28 48 13   0.1019  1.0676   140.9    35.6    20.9
2016 11 29    01 36 46.0 +28 34 45   0.1011  1.0683   142.4    34.3    20.9
...
2016 12 05    02 43 53.8 +26 00 16   0.1007  1.0753   151.9    25.6    20.6
...
2016 12 13    04 03 32.7 +20 25 00   0.1132  1.0925   161.7    16.4    20.6
...
2016 12 28    05 32 15.8 +11 56 56   0.1696  1.1464   162.6    14.9    21.6

A. U. Tomatic                (C) Copyright 2016 MPC           M.P.E.C. 2016-W113




More information about the Iaude mailing list